GW6775 Weather Reports


time (UTC)temp
C
wind
direction
speed
KPH
gust
KPH
rain 1hr
cm
rain 24hr
cm
rain mn
cm
humidity
%
barometer
mb
20260505140200 3 127 9.7 16.1 0.00 0.25 0.25 90 1015.6
20260505130123 3 121 11.3 19.3 0.05 0.20 0.20 89 1014.8
20260505124613 3 135 14.5 19.3 0.13 0.18 0.18 88 1014.3
20260505124109 3 108 9.7 22.5 0.13 0.18 0.18 89 1014.0
20260505123605 3 113 11.3 22.5 0.13 0.18 0.18 88 1014.1
20260505123102 3 113 16.1 24.1 0.05 0.15 0.15 88 1013.7
20260505122559 3 117 16.1 24.1 0.00 0.15 0.15 88 1013.9
20260505122056 4 122 14.5 20.9 0.05 0.15 0.15 88 1013.6
20260505121552 4 132 16.1 25.7 0.13 0.15 0.15 88 1013.6
20260505121049 5 124 12.9 22.5 0.13 0.15 0.15 89 1013.6
20260505120546 5 126 14.5 22.5 0.13 0.13 0.13 89 1013.4
20260505120041 6 125 14.5 19.3 0.13 0.13 0.13 90 1013.3
20260505115536 6 126 12.9 14.5 0.13 0.10 0.10 90 1013.0
20260505115034 6 129 9.7 14.5 0.18 0.10 0.10 90 1013.1
20260505114531 6 121 8.0 12.9 0.36 0.10 0.10 89 1013.3
20260505114027 6 127 9.7 14.5 0.30 0.08 0.08 88 1013.0
20260505113524 6 130 8.0 12.9 0.13 0.03 0.03 87 1013.0
20260505113020 6 126 9.7 14.5 0.05 0.03 0.03 87 1013.1
20260505112516 6 121 8.0 11.3 0.05 0.00 0.00 86 1013.0
20260505112014 6 118 6.4 9.7 0.05 0.00 0.00 86 1012.9
20260505111508 6 118 6.4 9.7 0.00 0.00 0.00 85 1012.9
20260505111004 6 112 8.0 9.7 0.00 0.00 0.00 85 1013.0
20260505110501 6 121 8.0 11.3 0.00 0.00 0.00 85 1012.9
20260505101933 7 131 8.0 17.7 0.00 0.00 0.00 86 1012.2
20260505101432 7 128 11.3 22.5 0.00 0.00 0.00 83 1012.1
20260505100928 7 120 8.0 9.7 0.00 0.00 0.00 82 1012.1
20260505100425 7 121 9.7 11.3 0.00 0.00 0.00 83 1012.1
20260505095921 8 131 9.7 11.3 0.00 0.00 0.00 84 1011.8
20260505095418 8 121 9.7 12.9 0.00 0.00 0.00 85 1011.7
20260505094914 8 118 8.0 9.7 0.00 0.00 0.00 85 1011.8
20260505094412 8 119 8.0 9.7 0.00 0.00 0.00 85 1012.1
20260505093907 8 126 8.0 8.0 0.00 0.00 0.00 85 1011.9
20260505093404 8 121 8.0 9.7 0.00 0.00 0.00 85 1012.1
20260505092902 8 122 8.0 9.7 0.00 0.00 0.00 86 1012.1
20260505092400 8 126 6.4 9.7 0.00 0.00 0.00 87 1012.3
20260505091857 8 120 6.4 8.0 0.00 0.00 0.00 87 1012.1
20260505091354 8 116 6.4 9.7 0.00 0.00 0.00 86 1012.1
20260505090852 8 117 6.4 9.7 0.00 0.00 0.00 86 1011.9
20260505090350 8 123 8.0 12.9 0.00 0.00 0.00 86 1011.9
20260505085847 8 114 8.0 11.3 0.00 0.00 0.00 85 1011.7
20260505085345 8 128 11.3 11.3 0.00 0.00 0.00 85 1011.8
20260505084843 8 122 6.4 9.7 0.00 0.00 0.00 85 1011.8
20260505084341 8 129 6.4 8.0 0.00 0.00 0.00 86 1011.9
20260505083838 8 122 6.4 6.4 0.00 0.00 0.00 86 1012.1
20260505083335 8 116 4.8 6.4 0.00 0.00 0.00 85 1011.9
20260505082832 8 128 6.4 8.0 0.00 0.00 0.00 85 1012.1
20260505082328 8 140 0.0 6.4 0.00 0.00 0.00 85 1011.9
20260505081825 8 113 0.0 6.4 0.00 0.00 0.00 85 1012.3
20260505081321 8 104 3.2 3.2 0.00 0.00 0.00 84 1012.3
20260505080818 8 103 0.0 6.4 0.00 0.00 0.00 84 1012.4
20260505080314 8 166 3.2 8.0 0.00 0.00 0.00 84 1012.2
20260505075810 8 250 1.6 6.4 0.00 0.00 0.00 85 1012.2
20260505075307 8 143 4.8 6.4 0.00 0.00 0.00 85 1012.1
20260505074804 8 263 1.6 3.2 0.00 0.00 0.00 85 1012.4
20260505074301 8 98 3.2 4.8 0.00 0.00 0.00 86 1012.7
20260505073759 8 126 3.2 4.8 0.00 0.00 0.00 87 1012.8
20260505073257 8 73 0.0 3.2 0.00 0.00 0.00 87 1012.8
20260505072753 8 125 4.8 4.8 0.00 0.00 0.00 87 1012.7
20260505072249 8 112 3.2 4.8 0.00 0.00 0.00 87 1012.8
20260505071745 8 124 4.8 6.4 0.00 0.00 0.00 88 1012.5
20260505071242 8 158 1.6 3.2 0.00 0.00 0.00 88 1012.9
20260505070739 8 326 1.6 4.8 0.00 0.00 0.00 88 1012.8
20260505070236 8 247 0.0 6.4 0.00 0.00 0.00 88 1013.1
20260505065731 8 168 1.6 3.2 0.00 0.00 0.00 89 1013.0
20260505065228 8 111 0.0 3.2 0.00 0.00 0.00 88 1013.1
20260505064725 8 117 4.8 4.8 0.00 0.00 0.00 88 1012.9
20260505064223 8 99 1.6 3.2 0.00 0.00 0.00 88 1013.3
20260505063720 8 149 1.6 4.8 0.00 0.00 0.00 88 1013.3
20260505063216 8 157 3.2 4.8 0.00 0.00 0.00 89 1013.4
20260505062713 8 228 1.6 4.8 0.00 0.00 0.00 89 1012.9
20260505062211 8 99 1.6 3.2 0.00 0.00 0.00 89 1013.3
20260505061707 8 114 3.2 3.2 0.00 0.00 0.00 88 1013.0
20260505061206 8 77 0.0 4.8 0.00 0.00 0.00 88 1013.1
20260505060702 8 122 4.8 4.8 0.00 0.00 0.00 88 1013.3
20260505060159 8 103 3.2 4.8 0.00 0.00 0.00 88 1013.3
20260505055654 8 128 4.8 4.8 0.00 0.23 0.23 89 1013.3
20260505055151 8 203 1.6 3.2 0.00 0.23 0.23 89 1013.0
20260505054649 8 158 0.0 4.8 0.00 0.23 0.23 89 1013.3
20260505054147 8 120 3.2 4.8 0.00 0.23 0.23 90 1013.0
20260505053644 8 113 3.2 4.8 0.05 0.23 0.23 89 1012.9
20260505053140 8 123 6.4 6.4 0.00 0.20 0.20 89 1013.1
20260505052638 8 127 6.4 6.4 0.00 0.20 0.20 89 1013.5
20260505052135 8 122 4.8 6.4 0.05 0.20 0.20 88 1013.1
20260505051631 8 119 4.8 6.4 0.18 0.20 0.20 88 1013.3
20260505051130 8 120 6.4 8.0 0.18 0.20 0.20 88 1013.6
20260505050627 8 128 4.8 8.0 0.05 0.18 0.18 88 1013.5
20260505050126 8 126 9.7 11.3 0.00 0.18 0.18 88 1013.5
20260505041555 8 128 12.9 16.1 0.13 0.10 0.10 86 1013.6
20260505041053 9 129 11.3 20.9 0.13 0.10 0.10 84 1013.9
20260505040550 9 127 8.0 22.5 0.18 0.10 0.10 83 1013.5
20260505040047 10 124 11.3 22.5 0.23 0.08 0.08 80 1013.4
20260505035543 10 126 9.7 16.1 0.18 0.05 0.05 77 1013.4
20260505035040 11 121 6.4 17.7 0.13 0.05 0.05 75 1013.5
20260505034536 11 127 6.4 17.7 0.18 0.03 0.03 70 1013.1
20260505034033 11 135 12.9 19.3 0.13 0.03 0.03 65 1013.4
20260505033530 11 128 8.0 12.9 0.00 0.00 0.00 62 1013.3
20260505033028 12 128 12.9 17.7 0.00 0.00 0.00 57 1012.9
20260505032525 12 133 11.3 19.3 0.00 0.00 0.00 54 1012.8
20260505032022 12 120 6.4 11.3 0.00 0.00 0.00 52 1012.5
20260505031519 12 132 12.9 14.5 0.00 0.00 0.00 51 1012.5
20260505031015 12 127 6.4 12.9 0.00 0.00 0.00 51 1012.5
20260505030512 12 134 3.2 6.4 0.00 0.00 0.00 50 1012.3
20260505030009 12 133 4.8 6.4 0.00 0.00 0.00 51 1012.3
20260505025504 12 142 3.2 3.2 0.00 0.00 0.00 51 1012.1
20260505025004 12 131 4.8 6.4 0.00 0.00 0.00 51 1012.1
20260505024500 12 178 0.0 4.8 0.00 0.00 0.00 51 1012.1
20260505023957 12 128 6.4 6.4 0.00 0.00 0.00 52 1012.2
20260505023454 12 135 3.2 8.0 0.00 0.00 0.00 51 1011.9
20260505022952 12 126 6.4 8.0 0.00 0.00 0.00 51 1011.8
20260505022449 12 126 6.4 9.7 0.00 0.00 0.00 50 1012.1
20260505021946 12 134 4.8 8.0 0.00 0.00 0.00 50 1011.9
20260505021442 13 130 6.4 9.7 0.00 0.00 0.00 49 1012.1
20260505020938 13 123 9.7 12.9 0.00 0.00 0.00 48 1011.9
20260505020433 13 129 12.9 14.5 0.00 0.00 0.00 48 1011.8
20260505015931 13 140 4.8 8.0 0.00 0.00 0.00 47 1011.7
20260505015428 13 127 6.4 8.0 0.00 0.00 0.00 48 1011.6
20260505014925 13 129 8.0 12.9 0.00 0.00 0.00 48 1011.7
20260505014422 13 129 9.7 12.9 0.00 0.00 0.00 47 1011.2
20260505013919 13 126 6.4 9.7 0.00 0.00 0.00 47 1011.2
20260505013416 13 130 4.8 9.7 0.00 0.00 0.00 48 1011.5
20260505012914 13 135 6.4 16.1 0.00 0.00 0.00 47 1011.7
20260505012412 13 133 9.7 14.5 0.00 0.00 0.00 49 1011.5
20260505011908 13 140 14.5 22.5 0.00 0.00 0.00 49 1011.4
20260505011404 13 136 11.3 25.7 0.00 0.00 0.00 48 1011.4
20260505010901 13 138 6.4 20.9 0.00 0.00 0.00 46 1011.4
20260505010357 14 117 14.5 22.5 0.00 0.00 0.00 43 1011.4
20260505005853 14 127 11.3 20.9 0.00 0.00 0.00 42 1011.1
20260505005349 15 123 9.7 27.4 0.00 0.00 0.00 41 1011.2
20260505004848 15 137 19.3 32.2 0.00 0.00 0.00 39 1011.5
20260505004343 15 127 20.9 22.5 0.00 0.00 0.00 38 1011.1
20260505003841 15 143 8.0 25.7 0.00 0.00 0.00 38 1010.9
20260505003338 15 125 16.1 22.5 0.00 0.00 0.00 36 1011.0
20260505002834 15 131 8.0 27.4 0.00 0.00 0.00 36 1010.9
20260505002331 16 134 14.5 19.3 0.00 0.00 0.00 35 1010.5
20260505001829 16 121 14.5 27.4 0.00 0.00 0.00 35 1011.0
20260505001326 16 127 14.5 16.1 0.00 0.00 0.00 34 1010.8
20260505000823 16 137 6.4 22.5 0.00 0.00 0.00 34 1010.6
20260505000321 16 130 17.7 20.9 0.00 0.00 0.00 33 1010.4
20260504235817 16 130 12.9 22.5 0.00 0.00 0.00 31 1010.4
20260504235314 17 140 12.9 20.9 0.00 0.00 0.00 30 1010.4
20260504234811 17 123 9.7 17.7 0.00 0.00 0.00 29 1010.3
20260504234309 17 126 11.3 19.3 0.00 0.00 0.00 29 1010.3
20260504233805 17 125 14.5 17.7 0.00 0.00 0.00 29 1010.3
20260504233301 17 128 12.9 22.5 0.00 0.00 0.00 29 1010.2
20260504232758 17 134 11.3 25.7 0.00 0.00 0.00 29 1009.8
20260504232255 17 128 11.3 22.5 0.00 0.00 0.00 29 1009.8
20260504231752 17 123 14.5 17.7 0.00 0.00 0.00 29 1009.9
20260504231248 17 124 11.3 24.1 0.00 0.00 0.00 29 1009.6
20260504230744 17 124 19.3 27.4 0.00 0.00 0.00 28 1009.5
20260504230243 18 132 9.7 19.3 0.00 0.00 0.00 28 1009.5
20260504225741 18 121 9.7 20.9 0.00 0.00 0.00 27 1009.3
20260504225237 18 132 11.3 24.1 0.00 0.00 0.00 27 1009.2
20260504224734 18 131 11.3 24.1 0.00 0.00 0.00 27 1009.6
20260504224231 18 134 12.9 22.5 0.00 0.00 0.00 27 1009.5
20260504223728 18 139 16.1 27.4 0.00 0.00 0.00 27 1009.5
20260504223223 18 128 17.7 29.0 0.00 0.00 0.00 26 1009.2
20260504222720 18 118 14.5 30.6 0.00 0.00 0.00 26 1009.1
20260504222217 18 137 14.5 30.6 0.00 0.00 0.00 26 1009.5
20260504221715 20 130 20.9 22.5 0.00 0.00 0.00 23 1009.5
20260504221212 20 131 14.5 22.5 0.00 0.00 0.00 22 1009.2
20260504220708 20 134 17.7 20.9 0.00 0.00 0.00 22 1008.9
20260504220206 20 134 8.0 14.5 0.00 0.00 0.00 21 1009.0
20260504215702 20 136 8.0 19.3 0.00 0.00 0.00 21 1008.9
20260504215159 21 128 11.3 19.3 0.00 0.00 0.00 20 1008.7
20260504214655 21 133 12.9 20.9 0.00 0.00 0.00 20 1008.9
20260504214151 21 121 12.9 16.1 0.00 0.00 0.00 20 1009.0
20260504213648 21 142 22.5 30.6 0.00 0.00 0.00 20 1008.7
20260504213145 20 128 20.9 27.4 0.00 0.00 0.00 20 1008.9
20260504212641 21 126 16.1 24.1 0.00 0.00 0.00 20 1009.2
20260504212138 21 132 11.3 20.9 0.00 0.00 0.00 19 1009.2
20260504211636 21 143 8.0 16.1 0.00 0.00 0.00 20 1009.2
20260504211132 21 131 11.3 14.5 0.00 0.00 0.00 21 1009.3
20260504210630 20 134 9.7 20.9 0.00 0.00 0.00 21 1009.3
20260504210126 20 129 20.9 27.4 0.00 0.00 0.00 21 1009.2
20260504205624 20 155 4.8 24.1 0.00 0.00 0.00 21 1009.5
20260504205121 21 127 14.5 20.9 0.00 0.00 0.00 21 1009.5
20260504204619 21 130 17.7 22.5 0.00 0.00 0.00 21 1009.3
20260504204118 21 135 14.5 24.1 0.00 0.00 0.00 21 1009.7
20260504203616 20 130 9.7 24.1 0.00 0.00 0.00 21 1009.5
20260504203113 20 128 14.5 17.7 0.00 0.00 0.00 22 1009.8
20260504202608 20 139 20.9 27.4 0.00 0.00 0.00 22 1009.6
20260504202105 20 162 4.8 27.4 0.00 0.00 0.00 23 1009.9
20260504201602 20 140 16.1 30.6 0.00 0.00 0.00 22 1009.8
20260504201100 20 129 24.1 25.7 0.00 0.00 0.00 22 1009.9
20260504200556 20 130 20.9 27.4 0.00 0.00 0.00 22 1009.7
20260504200053 20 132 20.9 24.1 0.00 0.00 0.00 22 1009.7
20260504195549 21 135 12.9 19.3 0.00 0.00 0.00 22 1009.6
20260504195046 20 133 11.3 30.6 0.00 0.00 0.00 22 1009.7
20260504194543 20 121 11.3 16.1 0.00 0.00 0.00 21 1009.6
20260504194038 20 141 8.0 24.1 0.00 0.00 0.00 22 1009.8
20260504193535 20 142 14.5 24.1 0.00 0.00 0.00 22 1009.9
20260504193034 20 130 8.0 20.9 0.00 0.00 0.00 22 1009.9
20260504192531 20 126 11.3 17.7 0.00 0.00 0.00 22 1009.9
20260504192029 20 137 11.3 20.9 0.00 0.00 0.00 21 1009.9
20260504191527 20 133 16.1 22.5 0.00 0.00 0.00 22 1009.8
20260504191023 19 128 11.3 27.4 0.00 0.00 0.00 23 1009.3
20260504190519 19 135 8.0 20.9 0.00 0.00 0.00 22 1009.7
20260504190015 18 116 14.5 27.4 0.00 0.00 0.00 22 1009.9
20260504185512 18 139 6.4 14.5 0.00 0.00 0.00 22 1009.8
20260504185009 18 140 9.7 22.5 0.00 0.00 0.00 23 1009.9
20260504184510 18 176 9.7 20.9 0.00 0.00 0.00 23 1010.2
20260504184006 18 144 3.2 8.0 0.00 0.00 0.00 20 1010.2
20260504183503 18 133 14.5 20.9 0.00 0.00 0.00 21 1010.4
20260504183000 18 124 11.3 43.5 0.00 0.00 0.00 21 1010.4
20260504182457 20 129 20.9 24.1 0.00 0.00 0.00 20 1009.8
20260504181955 20 135 8.0 11.3 0.00 0.00 0.00 20 1009.8
20260504181451 20 134 11.3 14.5 0.00 0.00 0.00 20 1009.9
20260504180950 20 136 9.7 11.3 0.00 0.00 0.00 20 1009.9
20260504180449 20 135 6.4 9.7 0.00 0.00 0.00 19 1009.8
20260504175947 20 128 8.0 16.1 0.00 0.00 0.00 19 1010.2
20260504175443 20 141 8.0 17.7 0.00 0.00 0.00 19 1010.0
20260504174941 20 131 12.9 19.3 0.00 0.00 0.00 19 1009.9
20260504174438 20 134 11.3 22.5 0.00 0.00 0.00 19 1010.0
20260504173936 21 134 8.0 22.5 0.00 0.00 0.00 19 1010.2
20260504173432 20 144 6.4 11.3 0.00 0.00 0.00 19 1010.4
20260504172930 20 228 3.2 8.0 0.00 0.00 0.00 19 1010.4
20260504172425 20 224 8.0 14.5 0.00 0.00 0.00 20 1010.5
20260504171922 20 137 9.7 17.7 0.00 0.00 0.00 20 1010.5
20260504171419 20 19 1.6 9.7 0.00 0.00 0.00 20 1010.5
20260504170916 20 138 9.7 16.1 0.00 0.00 0.00 20 1010.6
20260504170413 20 146 19.3 20.9 0.00 0.00 0.00 21 1010.5
20260504160331 18 118 4.8 14.5 0.00 0.00 0.00 22 1011.4
20260504150756 16 105 4.8 14.5 0.00 0.00 0.00 24 1011.5
20260504150253 16 198 6.4 12.9 0.00 0.00 0.00 25 1011.7